This demonstration page uses our WeatherBlox Daily Observations layout. Learn more.

Hourly Observations for January 10, 2019

Temp ( °F °C ) Dew Point ( °F °C ) Humidity (%) Winds ( mph kmh ) Pressure ( in mb ) Visibility ( mi km ) Precip ( " mm )
12:15 am 00:15 Clear 27 -2.7 21 -6.3 77 77 SSE 12 19 30.36 1028 10 16.0934 0 0
12:35 am 00:35 Clear 27 -2.6 21 -6.2 77 77 SE 10 17 30.36 1028 10 16.0934 0 0
12:55 am 00:55 Clear 27 -2.9 21 -6.2 78 78 SE 12 19 30.36 1028 10 16.0934 0 0
1:15 am 01:15 Clear 27 -2.7 21 -6.1 78 78 SE 14 22 30.33 1027 10 16.0934 0 0
1:35 am 01:35 Clear 27 -2.6 21 -6.1 77 77 SSE 13 20 30.33 1027 10 16.0934 0 0
1:55 am 01:55 Clear 28 -2.5 21 -6.1 77 77 SSE 13 20 30.33 1027 10 16.0934 0 0
2:15 am 02:15 Clear 28 -2.5 21 -6.1 77 77 SSE 14 22 30.33 1027 10 16.0934 0 0
2:35 am 02:35 Clear 28 -2.5 21 -6 77 77 SSE 13 20 30.33 1027 10 16.0934 0 0
2:55 am 02:55 Clear 28 -2.1 22 -5.7 77 77 SSE 13 20 30.33 1027 10 16.0934 0 0
3:15 am 03:15 Clear 28 -2.1 22 -5.7 77 77 SSE 10 17 30.33 1027 10 16.0934 0 0
3:35 am 03:35 Clear 28 -2.1 22 -5.5 78 78 SSE 10 17 30.3 1026 10 16.0934 0 0
3:55 am 03:55 Clear 28 -2.2 22 -5.5 78 78 SSE 8 13 30.3 1026 10 16.0934 0 0
4:15 am 04:15 Clear 28 -2 22 -5.4 78 78 SSE 8 13 30.27 1025 10 16.0934 0 0
4:35 am 04:35 Clear 28 -2.2 22 -5.3 80 80 SSE 7 11 30.24 1024 10 16.0934 0 0
4:55 am 04:55 Clear 28 -2.5 22 -5.4 81 81 SSE 8 13 30.27 1025 10 16.0934 0 0
5:15 am 05:15 Clear 27 -2.7 22 -5.3 83 83 SSE 7 11 30.27 1025 10 16.0934 0 0
5:35 am 05:35 Clear 27 -3 22 -5.5 83 83 SE 8 13 30.27 1025 10 16.0934 0 0
5:55 am 05:55 Clear 26 -3.3 22 -5.5 85 85 SSE 8 13 30.27 1025 10 16.0934 0 0
6:15 am 06:15 Clear 27 -3 22 -5.6 82 82 SSE 7 11 30.27 1025 10 16.0934 0 0
6:35 am 06:35 Clear 26 -3.1 22 -5.4 84 84 SE 6 9 30.27 1025 10 16.0934 0 0
6:55 am 06:55 Clear 26 -3.2 22 -5.3 86 86 SSE 6 9 30.27 1025 10 16.0934 0 0
7:15 am 07:15 Clear 26 -3.5 22 -5.5 86 86 SSE 7 11 30.27 1025 10 16.0934 0 0
7:35 am 07:35 Clear 26 -3.5 22 -5.5 86 86 SSE 6 9 30.27 1025 10 16.0934 0 0
7:55 am 07:55 Clear 25 -3.8 22 -5.6 87 87 SSE 6 9 30.27 1025 10 16.0934 0 0
8:15 am 08:15 Sunny 25 -3.7 22 -5.6 87 87 SSE 5 7 30.27 1025 10 16.0934 0 0
8:35 am 08:35 Sunny 26 -3.2 22 -5.3 86 86 SSE 7 11 30.27 1025 10 16.0934 0 0
8:55 am 08:55 Sunny 28 -2.2 23 -5 81 81 SSE 9 15 30.24 1024 10 16.0934 0 0
9:15 am 09:15 Sunny 29 -1.5 24 -4.5 80 80 SSE 8 13 30.24 1024 10 16.0934 0 0
9:35 am 09:35 Sunny 30 -1.1 24 -4.5 78 78 SSE 9 15 30.24 1024 10 16.0934 0 0
9:55 am 09:55 Sunny 32 0 25 -3.9 75 75 SSE 8 13 30.24 1024 10 16.0934 0 0
10:15 am 10:15 Sunny 33 0.5 25 -3.7 74 74 S 9 15 30.24 1024 10 16.0934 0 0
10:35 am 10:35 Sunny 33 0.8 25 -3.8 72 72 S 13 20 30.21 1023 10 16.0934 0 0
10:55 am 10:55 Sunny 34 1.3 26 -3.3 72 72 S 12 19 30.21 1023 10 16.0934 0 0
11:15 am 11:15 Sunny 35 1.8 26 -3.3 69 69 S 13 20 30.21 1023 10 16.0934 0 0
11:35 am 11:35 Sunny 36 2.4 26 -3.1 67 67 S 12 19 30.21 1023 10 16.0934 0 0
11:55 am 11:55 Sunny 37 2.9 27 -2.9 66 66 S 10 17 30.18 1022 10 16.0934 0 0
12:15 pm 12:15 Sunny 38 3.2 27 -2.9 65 65 SSW 10 17 30.18 1022 10 16.0934 0 0
12:35 pm 12:35 Sunny 39 3.7 28 -2.5 64 64 SW 6 9 30.15 1021 10 16.0934 0 0
12:55 pm 12:55 Sunny 39 4 28 -2.5 63 63 SW 6 9 30.12 1020 10 16.0934 0 0
1:15 pm 13:15 Sunny 40 4.5 28 -2.4 61 61 S 7 11 30.12 1020 10 16.0934 0 0
1:30 pm 13:30 Sunny 40 4.5 28 -2.3 62 62 SSW 6 9 30.12 1020 10 16.0934 0 0
1:55 pm 13:55 Sunny 40 4.5 27 -2.6 60 60 SSW 5 7 30.12 1020 10 16.0934 0 0
2:15 pm 14:15 Sunny 40 4.5 27 -2.6 60 60 S 6 9 30.12 1020 10 16.0934 0 0
2:35 pm 14:35 Sunny 41 4.8 28 -2.2 61 61 S 6 9 30.09 1019 10 16.0934 0 0
2:55 pm 14:55 Sunny 40 4.6 28 -2.2 62 62 S 7 11 30.09 1019 10 16.0934 0 0
3:15 pm 15:15 Sunny 40 4.7 28 -2 62 62 SSE 6 9 30.09 1019 10 16.0934 0 0
3:35 pm 15:35 Sunny 40 4.7 28 -2 62 62 S 6 9 30.09 1019 10 16.0934 0 0
3:55 pm 15:55 Sunny 40 4.6 30 -1.3 66 66 SSE 7 11 30.09 1019 10 16.0934 0 0
4:15 pm 16:15 Sunny 40 4.6 30 -1.1 67 67 S 6 9 30.09 1019 10 16.0934 0 0
4:35 pm 16:35 Sunny 41 5 29 -1.5 63 63 S 8 13 30.09 1019 10 16.0934 0 0
4:55 pm 16:55 Sunny 40 4.3 30 -1.2 68 68 S 6 9 30.09 1019 10 16.0934 0 0
5:15 pm 17:15 Sunny 39 3.9 29 -1.5 68 68 S 6 9 30.09 1019 10 16.0934 0 0
5:35 pm 17:35 Clear 36 2.3 29 -1.4 77 77 SSE 5 7 30.12 1020 10 16.0934 0 0
5:55 pm 17:55 Clear 37 2.5 29 -1.5 75 75 Calm 30.12 1020 10 16.0934 0 0
6:15 pm 18:15 Clear 35 1.7 29 -1.7 78 78 Calm 30.12 1020 10 16.0934 0 0
6:35 pm 18:35 Clear 33 0.6 29 -1.9 84 84 Calm 30.12 1020 10 16.0934 0 0
6:55 pm 18:55 Clear 33 0.6 29 -1.6 85 85 Calm 30.12 1020 10 16.0934 0 0
7:15 pm 19:15 Clear 33 0.4 29 -1.6 87 87 SE 5 7 30.12 1020 10 16.0934 0 0
7:35 pm 19:35 Clear 32 0 28 -2 87 87 Calm 30.12 1020 10 16.0934 0 0
7:55 pm 19:55 Clear 32 0 29 -1.9 87 87 Calm 30.12 1020 10 16.0934 0 0
8:15 pm 20:15 Clear 32 0 28 -2 87 87 Calm 30.12 1020 10 16.0934 0 0
8:35 pm 20:35 Clear 30 -1 28 -2.3 91 91 Calm 30.15 1021 10 16.0934 0 0
8:55 pm 20:55 Clear 30 -1 28 -2.4 90 90 Calm 30.15 1021 10 16.0934 0 0
9:15 pm 21:15 Clear 30 -1.1 28 -2.2 92 92 Calm 30.15 1021 10 16.0934 0 0
9:35 pm 21:35 Clear 30 -1.3 28 -2 95 95 Calm 30.15 1021 10 16.0934 0 0
9:55 pm 21:55 Clear 30 -1.1 28 -2 94 94 Calm 30.15 1021 10 16.0934 0 0
10:15 pm 22:15 Clear 27 -2.6 26 -3.1 96 96 Calm 30.15 1021 10 16.0934 0 0
10:35 pm 22:35 Clear 28 -2.3 28 -2.5 99 99 Calm 30.15 1021 10 16.0934 0 0
10:55 pm 22:55 Clear 28 -2 28 -2.3 98 98 Calm 30.15 1021 10 16.0934 0 0
11:15 pm 23:15 Clear 28 -2.1 27 -2.6 96 96 Calm 30.15 1021 10 16.0934 0 0
11:35 pm 23:35 Clear 28 -2.4 27 -2.7 98 98 Calm 30.15 1021 10 16.0934 0 0
11:55 pm 23:55 Clear 28 -2.1 28 -2.5 97 97 Calm 30.15 1021 10 16.0934 0 0

Powered by AerisWeather